Regional Weather Roundup
Issued by NWS

Home | Current Version | Previous Version | Graphics & Text | Print | Product List | Glossary On
Versions: 1 2 3 4 5 6 7 8 9 10 11 12 13 14 15 16 17 18 19 20 21 22 23 24 25 26 27 28 29 30 31 32 33 34 35 36 37 38 39 40 41 42 43 44 45 46 47 48 49 50
000
ASUS45 KCYS 302110
RWRWY

WYOMING REGIONAL WEATHER ROUNDUP
NATIONAL WEATHER SERVICE CHEYENNE WY
300 PM MDT SAT MAY 30 2015

NOTE:  "FAIR" INDICATES FEW OR NO CLOUDS BELOW 12,000 FEET
WITH NO SIGNIFICANT WEATHER AND/OR OBSTRUCTIONS TO VISIBILITY.

WYZ001-302200-
YELLOWSTONE NATIONAL PARK

CITY           SKY/WX    TMP DP  RH WIND       PRES   REMARKS
LK YELLOWSTONE   N/A     60  35  39 VRB7      30.23F
W YELLOWSTONE  NOT AVBL

$$
WYZ002>013-054>058-071-098>099-302200-
NORTHERN WYOMING

CITY           SKY/WX    TMP DP  RH WIND       PRES   REMARKS
JACKSON        PTSUNNY   70  37  30 S9        30.15F
CODY           FAIR      73  46  38 SE14      30.04F
GREYBULL       FAIR      78  37  22 SE9       30.00F
WORLAND        FAIR      77  43  29 MISG      30.02F
SHERIDAN       FAIR      74  53  48 VRB3      30.03F
BUFFALO        FAIR      72  46  39 VRB3      30.06F
GILLETTE       FAIR      66  52  60 S23G31    30.08F
HULETT         FAIR      70  46  43 SE7       30.12F
NEWCASTLE      FAIR      64  45  48 S17G25    30.17F

$$
WYZ014>020-022>026-101>103-302200-
CENTRAL WYOMING

CITY           SKY/WX    TMP DP  RH WIND       PRES   REMARKS
BIG PINEY      FAIR      68  41  37 SW8       30.21F
PINEDALE       FAIR      66  36  32 CALM      30.22F
DUBOIS         MOCLDY    66  32  28 NW18      30.17F
LANDER         FAIR      73  47  39 E6        30.08F
RIVERTON       FAIR      72  40  31 S6        30.11F
CASPER         FAIR      70  41  34 SW14      30.12F
DOUGLAS        FAIR      69  51  52 SE14      30.15F

$$
WYZ021-027>030-104>119-302200-
SOUTHERN WYOMING

CITY           SKY/WX    TMP DP  RH WIND       PRES   REMARKS
EVANSTON       FAIR      73  41  31 W16G24    30.22F
KEMMERER       FAIR      70  37  30 W10       30.23F
FORT BRIDGER   PTCLDY    75  39  27 W14G24    30.25F
ROCK SPRINGS   FAIR      72  36  26 W16G22    30.21F
DIXON          FAIR      71  35  26 W13       30.26F
RAWLINS        FAIR      69  35  28 W14G21    30.23F
SARATOGA       FAIR      68  32  26 W14G24    30.26S
LARAMIE        FAIR      66  35  31 NW8       30.25F
CHEYENNE       FAIR      65  47  52 S15       30.24F
TORRINGTON     FAIR      69  52  54 SE17G25   30.15F
PINE BLUFFS    FAIR      64  46  52 S6G17     30.22F

$$


USA.gov is the U.S. government's official web portal to all federal, state and local government web resources and services.